Weather in Zelenograd

Russia / Moscow Oblast     55°59′30″N   37°12′51″E
temp.,
°C
wind,
m/s
gust,
m/s
humid.,
%
clouds,
%
prec.,
mm/h
press.,
hPa
HPBL,
m
1 march, mon
mon100:00−7ne129574 0.0 102121
03:00−8nw009568 0.1 102321
06:00−7wsw229761 0.0 102326
09:00−5w249675 0.1 1024203
12:00−1wsw469061 0.0 1023387
15:000w6109477 0.0 1022660
18:00+1wsw51191100 0.0 1019518
21:00+1w61393100 0.0 1017654
2 march, tue
tue200:00+1w61391100 0.0 1014566
03:00+1wnw61392100 0.0 1013839
06:00+1wnw51393100 0.0 1010695
09:00+1wnw41092100 0.2 1010777
12:00+1nw599099 0.1 1009814
15:00+1nw5108999 0.3 1008961
18:00−1nw5128661 0.1 1009564
21:00−1nnw6118779 0.2 1011945
3 march, wed
wed300:00−2nw5129395 0.1 1012954
03:00−4nnw5128598 0.2 1014834
06:00−5nnw5138733 0.0 1016798
09:00−4nw5128528 0.0 1017831
12:00−1wnw698639 0.0 1017729
15:00−1wnw698567 0.1 1016819
18:00−1wnw51185100 0.0 1015797
21:00−1wnw51088100 0.1 1014786
4 march, thu
thu400:00−2w51191100 0.1 1011812
03:00−1wsw71493100 0.1 1007744
06:00−2wsw71687100 0.1 1003743
09:00−1w81487100 0.1 10011019
12:000w7129199 0.1 999992
15:000wsw71296100 0.6 999853
18:00−2wnw41078100 2.1 1000797
21:00−4nw398898 2.1 1003351
5 march, fri
fri500:00−6nw38948 0.0 1005242
03:00−8nw369535 0.0 1006207
06:00−10nw239643 0.0 100860
09:00−8nw239222 0.0 1009157
12:00−5wnw12730 0.0 1010621
15:00−3w12665 0.0 1011855
18:00−6w118065 0.0 101121
21:00−8nnw018546 0.0 101221